TimePDT,TemperatureF,Dew PointF,Humidity,Sea Level PressureIn,VisibilityMPH,Wind Direction,Wind SpeedMPH,Gust SpeedMPH,PrecipitationIn,Events,Conditions,WindDirDegrees,DateUTC
12:54 AM,-9999,-9999,N/A,-9999,-9999.0,Calm,Calm,-,N/A,,Clear,0,2013-05-19 07:54:00
1:54 AM,-9999,-9999,N/A,-9999,-9999.0,Calm,Calm,-,N/A,,Clear,0,2013-05-19 08:54:00
2:54 AM,-9999,-9999,N/A,-9999,-9999.0,NW,3.5,-,N/A,,Clear,320,2013-05-19 09:54:00
3:54 AM,-9999,-9999,N/A,-9999,-9999.0,ENE,4.6,-,N/A,,Clear,70,2013-05-19 10:54:00
4:54 AM,-9999,-9999,N/A,-9999,-9999.0,NNE,4.6,-,N/A,,Clear,30,2013-05-19 11:54:00
5:54 AM,-9999,-9999,N/A,-9999,-9999.0,NNE,5.8,-,N/A,,Clear,30,2013-05-19 12:54:00
6:54 AM,-9999,-9999,N/A,-9999,-9999.0,NNE,3.5,-,N/A,,Clear,30,2013-05-19 13:54:00
7:54 AM,-9999,-9999,N/A,-9999,-9999.0,NNE,3.5,-,N/A,,Clear,20,2013-05-19 14:54:00
8:54 AM,64.9,53.4,66,30.01,7.0,Calm,Calm,-,N/A,,Clear,0,2013-05-19 15:54:00
9:54 AM,66.6,54.0,64,30.01,7.0,South,8.1,-,N/A,,Clear,170,2013-05-19 16:54:00
10:54 AM,65.8,57.4,74,29.99,7.0,SSW,6.9,-,N/A,,Clear,200,2013-05-19 17:54:00
11:54 AM,67.5,58.1,72,29.97,7.0,SW,9.2,-,N/A,,Clear,230,2013-05-19 18:54:00
12:54 PM,67.5,58.5,73,29.95,7.0,SW,9.2,-,N/A,,Clear,230,2013-05-19 19:54:00
1:54 PM,67.5,55.9,66,29.94,7.0,SW,10.4,-,N/A,,Clear,220,2013-05-19 20:54:00
2:54 PM,67.5,57.6,70,29.92,7.0,SW,8.1,-,N/A,,Clear,220,2013-05-19 21:54:00
3:04 PM,68.0,57.2,68,29.92,7.0,SSW,8.1,-,N/A,,Partly Cloudy,210,2013-05-19 22:04:00
3:54 PM,69.3,59.0,70,29.92,7.0,South,6.9,-,N/A,,Clear,180,2013-05-19 22:54:00
4:54 PM,70.2,59.9,70,29.88,7.0,South,9.2,-,N/A,,Clear,180,2013-05-19 23:54:00
5:54 PM,69.6,59.0,69,29.86,7.0,South,12.7,-,N/A,,Clear,180,2013-05-20 00:54:00
6:54 PM,66.9,57.4,71,29.86,7.0,South,15.0,-,N/A,,Clear,170,2013-05-20 01:54:00
7:54 PM,66.2,57.2,73,29.86,7.0,SSE,10.4,-,N/A,,Clear,160,2013-05-20 02:54:00
8:54 PM,-9999,-9999,N/A,-9999,-9999.0,SSE,10.4,-,N/A,,Clear,160,2013-05-20 03:54:00
9:54 PM,-9999,-9999,N/A,-9999,-9999.0,SSE,10.4,-,N/A,,Clear,150,2013-05-20 04:54:00
10:54 PM,-9999,-9999,N/A,-9999,-9999.0,SE,10.4,-,0.00,,Unknown,130,2013-05-20 05:54:00
11:54 PM,-9999,-9999,N/A,-9999,-9999.0,Calm,Calm,-,0.00,,Clear,0,2013-05-20 06:54:00